Location: Leedale
(52.5833°N, 114.4833°W)
Time: 17:07:23
(UTC+00:00)

AAUSAT CUBESAT 2 - Visible Passes

Search period start: 03 December 2024 00:00
Search period end: 13 December 2024 00:00
Orbit: 458 x 462 km, 97.6° (Epoch: 02 December)

Date Brightness Start Highest point End Pass type
(mag) Time Alt. Az. Time Alt. Az. Time Alt. Az.
04 Dec ? 00:43:54 10° SW 00:45:49 14° W 00:47:46 10° NW visible
05 Dec ? 00:10:17 10° SSW 00:13:21 30° W 00:16:28 10° NNW visible
07 Dec ? 00:39:24 10° SW 00:41:35 16° W 00:43:47 10° NW visible
08 Dec ? 00:05:32 10° SSW 00:08:42 34° W 00:11:54 10° NNW visible
10 Dec ? 00:33:33 10° SW 00:36:00 18° W 00:38:28 10° NW visible
10 Dec ? 23:59:26 10° S 00:02:42 40° W 00:05:59 10° NNW visible
